SCP
0 -0 -0 0 0 0 0 0 0 0 0 0 0 0 0 0 0 0 0 0 0 0 0 0 1 1 1 1 1 0 0 0 0 0 0 0 0 0 0 0 0 0 0 0 0 0 0 0 0
-0 -0 -0 0 0 0 0 0 0 0 0 0 0 0 0 0 0 0 0 0 0 0 0 0 1 1 1 1 1 0 0 0 0 0 0 0 0 0 0 0 0 0 0 0 0 0 0 0 0
0 0 0 0 0 0 0 0 0 0 0 0 0 0 0 0 0 0 0 0 0 0 0 0 1 1 1 1 1 1 0 0 0 0 0 0 0 0 0 0 0 0 0 0 0 0 0 0 0
0 0 0 0 0 0 0 0 0 0 0 0 0 0 0 0 0 0 0 0 0 0 0 0 1 1 1 1 1 1 1 0 0 0 0 0 0 0 0 0 0 0 0 0 0 0 0 0 0
0 0 0 0 0 0 0 0 0 0 0 0 0 0 0 0 0 1 1 1 1 0 0 1 1 1 1 1 1 1 1 0 0 0 0 0 0 0 0 0 0 0 0 0 0 0 0 0 0
0 0 0 0 0 0 0 0 0 0 0 0 0 0 0 0 1 1 1 1 1 1 1 1 1 1 1 1 1 1 1 1 0 0 0 0 0 0 0 0 0 0 0 0 0 0 0 0 0
0 0 0 0 0 0 0 0 0 0 0 0 0 0 0 0 1 1 1 1 1 1 1 1 1 1 1 1 1 1 1 1 0 0 0 0 0 0 0 0 0 0 0 0 0 0 0 0 0
-0 0 0 0 0 0 0 0 0 0 0 0 0 0 0 1 1 1 1 1 1 1 1 1 1 1 1 1 1 1 1 1 0 0 0 0 0 0 0 0 0 0 0 0 0 0 0 0 0
-0 -0 0 0 0 0 0 0 0 0 0 0 0 0 1 1 1 1 1 1 1 1 1 1 1 1 1 1 1 1 1 1 0 0 0 0 0 0 0 0 0 0 0 0 0 0 0 0 0
0 0 0 0 0 0 0 0 0 0 0 0 1 1 1 1 1 1 1 1 1 1 1 1 1 1 1 1 1 1 1 0 0 0 0 0 0 0 0 0 0 0 0 0 0 0 0 0 0
0 0 0 0 0 0 0 0 0 0 0 0 1 1 1 1 1 1 1 1 1 1 1 1 1 1 1 1 1 0 0 0 0 0 0 0 0 0 0 0 0 0 0 0 0 0 0 0 0
0 0 0 0 0 0 0 0 0 0 0 0 1 1 1 1 1 1 1 1 1 1 1 1 1 1 1 1 1 0 0 0 0 0 0 0 0 0 0 0 0 0 0 0 0 0 0 0 0
0 0 0 0 0 0 0 0 0 0 0 0 1 1 1 1 1 1 1 1 1 1 1 1 1 1 1 1 1 1 0 0 0 0 0 0 0 0 0 0 0 0 0 0 0 0 0 0 0
0 0 0 0 0 0 0 0 0 0 0 1 1 1 1 1 1 1 1 1 1 1 1 1 1 1 1 1 1 1 0 0 0 0 0 0 0 0 0 0 0 0 0 0 0 0 0 0 0
0 0 0 0 0 0 0 0 0 0 0 1 1 1 1 1 1 1 1 1 1 1 1 1 1 1 1 1 1 1 1 0 0 0 0 0 0 0 0 0 0 0 0 0 0 0 0 0 0
0 0 0 0 0 0 0 0 0 0 0 1 1 1 1 1 1 1 1 1 1 1 1 1 1 1 1 1 1 1 1 0 0 0 0 0 0 0 0 0 0 0 0 0 0 0 0 0 0
0 0 0 0 0 0 0 0 0 0 0 0 0 1 1 1 1 1 1 1 1 1 1 1 1 1 1 1 1 1 1 0 0 0 0 0 0 0 0 0 0 0 0 0 0 0 0 0 0
0 0 0 0 0 0 0 0 0 0 0 0 0 1 1 1 1 1 1 1 1 1 1 1 1 1 1 1 1 1 1 0 0 0 0 0 0 0 0 0 0 0 0 0 0 0 0 0 0
0 0 0 0 0 0 0 0 0 0 0 0 0 1 1 1 1 1 1 1 1 1 1 1 1 1 1 1 1 1 0 0 0 0 0 0 0 0 0 0 0 0 0 0 0 0 0 0 0
0 0 0 0 0 0 0 0 0 0 0 0 0 1 1 1 1 1 1 1 1 1 1 1 1 1 1 1 1 1 0 0 0 0 0 0 0 0 0 0 0 0 0 0 0 0 0 0 0
0 0 0 0 0 0 0 0 0 0 0 0 0 1 1 1 1 1 1 1 1 1 1 1 1 1 1 1 1 1 0 0 0 0 0 0 0 0 0 0 0 0 0 0 0 0 0 0 0
0 0 0 0 0 0 0 0 0 0 0 0 0 0 1 1 1 1 1 1 1 1 1 1 1 1 1 1 1 0 0 0 0 0 0 0 0 0 0 0 0 0 0 0 0 0 0 0 0
0 0 0 0 0 0 0 0 0 0 0 0 0 0 1 1 1 1 1 1 1 1 1 1 1 1 1 1 0 0 0 0 0 0 0 0 0 0 0 0 0 0 0 0 0 0 0 0 0
0 0 0 0 0 0 0 0 0 0 0 0 0 0 1 1 1 1 1 2 1 1 1 1 1 1 1 0 0 0 0 0 0 0 0 0 0 0 0 0 0 0 0 0 0 0 0 0 0
0 0 0 0 0 0 0 0 0 0 0 0 0 0 1 1 1 1 1 1 1 1 1 1 1 1 1 0 0 0 0 0 0 0 0 0 0 0 0 0 0 0 0 0 0 0 0 0 0
0 0 0 0 0 0 0 0 0 0 0 0 0 1 1 1 1 1 1 1 1 1 1 1 1 1 0 0 0 0 0 0 0 0 0 0 0 0 0 0 0 0 0 0 0 0 0 0 0
0 0 0 0 0 0 0 0 0 0 0 0 0 0 1 1 1 1 1 1 1 1 1 1 1 1 0 0 0 0 0 0 0 0 0 0 0 0 0 0 0 0 0 0 0 0 0 0 0
0 0 0 0 0 0 0 0 0 0 0 0 0 0 0 1 1 1 1 1 1 1 1 1 1 1 0 0 0 0 0 0 0 0 0 0 0 0 0 0 0 0 0 0 0 0 0 0 0
0 0 0 0 0 0 0 0 0 0 0 0 0 0 0 0 1 0 0 0 0 0 1 1 1 1 0 0 0 0 0 0 0 0 0 0 0 0 0 0 0 0 0 0 0 0 0 0 0
0 0 0 0 0 0 0 0 0 0 0 0 0 0 0 0 0 0 0 0 0 0 0 0 0 0 0 0 0 0 0 0 0 0 0 0 0 0 0 0 0 0 0 0 0 0 0 0 0
Wind_Speed
3 2 2 2 5 5 2 4 1 1 2 3 4 7 8 6 5 5 3 12 15 13 10 13 15 15 15 15 14 14 13 13 13 13 13 12 12 12 12 12 12 12 13 13 13 13 13 13 12
1 2 3 4 5 2 4 3 1 2 5 4 5 7 8 6 6 9 7 12 15 14 10 11 16 16 15 15 14 14 14 13 13 13 13 12 12 12 12 12 12 12 11 12 12 12 12 11 11
2 1 3 4 2 4 4 3 3 3 5 5 4 4 5 6 7 7 9 15 14 12 9 12 17 16 15 15 14 14 14 13 13 12 12 12 12 11 11 11 11 11 11 11 11 11 10 10 9
2 3 4 3 3 6 6 6 3 4 2 3 6 5 3 4 7 10 15 16 15 11 10 12 17 16 16 15 15 14 14 13 13 13 12 12 11 11 11 11 11 10 10 10 10 9 9 9 8
3 4 4 2 5 6 6 6 4 5 3 4 8 6 3 2 12 17 16 16 14 11 9 11 16 16 15 15 15 14 14 13 13 12 12 11 11 10 10 10 10 10 9 9 9 8 8 8 8
3 4 3 2 6 5 5 5 4 4 5 6 8 7 2 6 13 16 15 14 14 13 10 10 15 16 15 15 14 14 13 13 12 12 11 11 10 10 10 9 10 9 9 9 8 8 7 7 7
3 3 2 4 5 5 4 1 4 5 5 5 8 7 3 6 10 14 13 13 13 13 10 7 8 11 14 14 13 13 12 12 12 11 11 11 11 10 10 9 9 9 9 8 8 8 7 6 6
5 3 1 3 4 5 2 1 2 6 4 6 6 9 7 8 11 12 12 11 11 10 9 8 7 6 7 8 13 13 13 12 12 12 12 12 11 10 10 9 8 9 9 8 8 7 7 6 5
3 3 3 5 3 3 2 2 1 2 5 4 3 5 8 13 13 13 11 9 9 9 7 8 7 6 6 6 9 11 12 11 10 9 11 9 5 5 6 8 9 9 9 8 7 6 5 5 5
4 3 7 6 3 1 2 1 1 3 5 5 6 6 11 13 13 13 13 11 10 10 9 7 8 7 7 6 5 4 5 5 5 4 5 4 3 3 5 7 9 9 9 8 7 6 4 3 2
4 6 6 5 4 2 1 2 1 4 1 5 9 11 11 11 10 11 11 11 10 10 10 9 8 7 7 4 5 3 3 3 4 4 5 4 3 3 3 2 4 4 5 3 3 3 2 2 1
4 7 5 5 4 2 2 1 1 1 5 7 12 14 13 11 10 10 11 10 8 9 8 8 8 7 6 5 5 4 3 3 3 4 5 4 3 3 3 2 2 2 2 2 2 1 2 2 2
5 6 6 5 4 4 2 2 2 2 3 7 11 12 12 11 9 8 9 9 8 7 7 8 7 7 6 5 4 5 4 4 4 4 4 5 4 4 3 3 2 3 2 3 2 2 2 2 2
5 3 5 5 4 3 2 4 1 4 5 8 10 10 10 10 10 8 8 8 8 8 7 7 8 7 6 5 4 4 4 4 4 4 5 5 4 4 4 3 3 3 3 3 3 2 2 2 2
3 3 6 5 3 3 1 4 4 6 7 9 9 10 9 8 9 10 9 9 9 8 7 6 7 6 7 6 5 4 4 4 4 4 5 5 5 5 4 3 3 3 3 3 3 2 2 2 3
4 3 4 7 4 4 4 6 8 5 7 8 9 9 8 7 9 9 9 8 8 8 7 6 6 6 6 5 5 4 4 4 4 3 4 5 5 6 5 4 3 3 3 3 3 2 2 2 2
3 2 5 8 4 2 4 6 8 6 8 8 8 9 9 7 7 7 9 9 8 8 8 6 5 6 5 5 4 4 4 4 4 3 3 4 5 6 5 4 3 4 3 3 3 2 2 2 2
5 5 6 7 5 2 3 6 7 5 7 8 8 9 9 10 9 8 9 9 8 7 7 7 5 5 5 4 3 2 3 3 3 4 4 5 4 6 5 4 4 4 4 3 2 3 2 2 2
6 7 9 10 6 2 4 6 7 5 5 6 7 8 9 9 8 8 9 9 8 7 7 6 6 5 5 4 4 3 3 3 3 3 4 5 5 5 5 4 4 4 4 4 4 3 2 1 1
7 8 10 8 5 2 3 5 5 5 6 8 8 8 9 7 7 8 8 8 8 8 7 6 6 6 5 4 3 3 3 2 3 3 4 5 5 6 5 5 4 4 4 4 3 3 2 1 2
8 8 9 8 6 2 0 5 5 3 2 3 4 6 8 10 10 9 9 8 8 8 8 7 6 6 4 4 3 3 2 2 1 2 3 4 5 6 5 6 5 4 4 4 3 4 4 2 1
8 9 8 6 3 4 2 3 6 3 1 2 2 4 6 7 8 9 9 9 9 8 7 6 6 5 4 5 5 5 4 3 3 2 3 3 5 5 6 6 5 5 4 4 3 3 3 3 2
8 8 6 5 3 2 2 1 7 3 2 4 3 5 7 8 9 9 10 11 9 8 7 6 5 5 4 4 6 5 3 2 2 2 3 3 3 4 5 5 5 4 4 4 4 3 3 2 3
5 3 4 3 3 2 4 2 6 4 4 4 3 4 6 7 8 7 7 7 6 6 6 6 6 5 5 5 5 5 5 4 4 3 4 3 3 3 4 5 4 4 4 4 4 4 4 2 3
1 4 4 5 4 5 3 2 6 5 3 4 4 4 6 7 8 8 8 7 7 7 6 6 6 5 4 5 5 5 6 6 6 4 4 4 3 3 4 4 4 4 3 4 4 3 3 3 3
3 7 6 4 4 4 3 3 4 3 0 2 3 3 4 6 7 9 9 9 8 8 7 7 7 5 4 4 5 4 4 3 3 4 4 4 3 4 5 5 4 4 4 4 3 2 2 3 3
2 3 6 6 2 1 3 3 4 3 3 3 4 3 3 4 5 7 8 7 7 7 7 7 7 5 4 4 4 4 4 3 3 3 3 3 3 3 5 5 5 4 4 4 4 3 3 3 3
5 4 4 4 3 3 3 2 3 2 0 1 2 2 2 4 3 3 4 5 6 6 5 5 6 6 5 4 4 4 4 4 4 4 4 4 4 4 5 5 5 5 4 4 3 3 3 3 3
1 2 3 3 4 5 3 5 3 4 2 1 2 3 4 4 4 3 3 3 4 4 4 5 5 5 5 5 5 4 4 3 3 4 4 4 4 4 5 5 5 5 4 4 4 3 3 3 2
3 3 4 4 3 3 3 4 2 2 1 2 2 3 3 4 4 4 3 3 3 3 4 5 5 4 4 5 4 4 4 4 3 3 3 4 4 5 5 5 5 5 4 4 4 4 4 4 4
Wind_Direction
224 193 133 71 53 49 299 258 188 72 53 40 61 84 94 86 119 142 143 138 137 143 147 142 136 132 129 126 122 120 119 117 115 114 113 112 110 110 110 111 109 110 111 111 110 109 108 108 109
227 178 66 59 77 52 281 253 184 167 144 115 77 79 80 74 91 114 125 143 142 143 145 143 139 136 134 131 128 127 126 124 122 120 119 118 116 115 114 114 113 113 114 115 115 113 112 110 107
261 145 86 74 107 184 233 242 196 174 140 125 97 70 87 115 119 133 146 146 141 142 144 148 142 140 138 136 134 133 132 130 129 127 124 124 123 121 121 121 119 118 120 120 120 118 117 116 113
61 48 51 72 242 231 220 239 213 121 80 99 104 77 63 122 135 137 140 145 141 143 147 151 146 144 143 142 140 139 138 136 133 131 130 130 129 128 129 128 127 126 127 127 127 125 123 122 119
68 76 51 344 264 253 243 239 192 128 126 113 105 102 66 58 122 133 142 144 142 142 146 151 147 147 147 146 145 144 142 140 140 138 135 135 135 135 134 133 134 134 132 132 133 132 128 126 124
54 71 76 272 270 270 254 230 153 126 112 118 117 116 119 130 131 143 145 144 144 144 146 150 151 150 150 151 149 147 146 145 145 144 141 139 140 140 140 139 141 141 139 140 140 138 135 130 125
123 111 206 244 267 275 250 235 150 143 131 148 135 115 138 154 145 143 140 137 138 142 142 146 152 153 153 153 154 151 151 150 150 150 148 147 146 147 147 148 149 149 148 149 145 143 142 138 130
151 111 281 279 270 280 254 87 151 134 135 131 126 135 168 176 144 133 130 129 133 138 143 148 150 150 153 157 160 158 157 156 157 158 157 156 155 155 157 158 158 158 156 155 149 149 148 141 133
116 87 246 243 233 281 324 78 39 79 106 96 97 139 156 145 131 125 125 124 135 140 147 150 154 154 153 158 166 164 163 163 161 164 165 160 158 160 163 168 167 166 164 160 158 157 150 142 132
116 176 234 226 212 222 310 41 37 69 71 77 74 91 124 137 139 139 142 145 152 157 162 160 161 161 158 165 157 160 164 162 159 160 163 158 157 168 169 175 175 173 168 165 165 167 153 132 106
181 212 243 262 255 232 256 314 25 115 111 156 144 139 136 135 140 144 148 153 161 164 163 165 165 165 165 159 155 163 156 158 163 169 167 160 156 161 164 160 170 170 165 160 157 154 139 125 119
237 256 248 260 268 251 234 231 321 158 205 172 151 147 143 140 143 146 148 157 154 155 161 162 165 166 167 159 162 163 160 165 172 175 168 160 158 162 162 158 157 155 153 155 154 164 156 145 151
249 264 275 261 261 239 245 239 211 235 182 144 138 138 143 146 148 151 146 146 141 143 151 157 158 165 166 158 162 157 164 167 171 168 170 166 162 165 165 165 169 168 157 156 159 169 143 132 131
255 268 285 276 272 259 237 275 213 227 156 143 142 149 157 156 154 145 139 138 143 148 150 155 158 162 160 157 161 160 166 164 159 168 175 167 161 161 160 163 165 164 164 157 153 151 142 135 131
279 311 311 285 257 249 69 316 237 215 156 154 159 163 159 160 153 153 156 150 149 149 149 149 155 156 157 159 163 157 161 155 157 166 167 161 153 153 152 158 161 167 153 135 123 118 114 130 129
357 350 294 281 258 257 144 249 257 208 159 168 170 167 161 162 159 158 153 147 145 145 148 151 152 152 156 155 157 153 155 151 159 161 158 155 150 147 143 143 162 153 137 131 129 128 118 123 132
352 279 267 288 265 232 164 226 246 212 170 179 178 172 167 164 157 155 154 150 149 149 145 140 139 152 153 148 148 146 149 151 156 153 153 155 149 147 144 147 151 140 127 129 142 129 137 139 142
253 263 273 270 281 240 212 234 240 222 179 179 179 174 171 170 171 162 153 149 144 143 138 137 134 144 142 133 125 125 132 148 150 152 155 154 152 149 144 145 143 134 127 125 124 131 121 136 152
248 264 270 269 271 268 244 241 242 231 188 179 175 171 173 172 168 154 149 147 139 138 137 140 139 144 142 143 150 153 162 166 160 159 158 158 154 154 151 148 142 140 139 147 143 130 125 123 115
252 265 271 279 272 240 247 260 244 222 207 187 174 169 164 163 159 153 147 148 150 151 151 148 145 150 158 163 162 159 157 168 164 161 159 161 158 161 162 153 152 149 142 142 141 131 131 146 131
256 240 250 260 289 309 5 315 296 284 219 169 165 169 163 161 166 162 155 156 156 158 161 159 160 155 159 152 128 113 93 89 109 160 170 172 162 159 157 155 150 150 149 158 157 147 145 153 165
260 254 248 253 264 270 187 260 287 272 282 231 203 173 170 166 160 165 162 159 167 172 166 158 160 157 162 153 151 150 159 167 189 177 170 173 168 162 161 157 154 155 152 157 166 151 143 142 162
237 256 261 258 224 277 314 184 281 297 274 259 223 192 183 174 166 169 169 169 171 169 162 160 156 160 167 160 160 162 158 167 160 148 151 159 162 162 161 158 156 158 160 162 159 146 144 149 159
237 319 334 15 75 284 258 188 270 257 231 240 222 190 173 165 164 164 157 149 149 158 160 169 165 172 171 166 165 161 158 155 149 157 168 168 164 164 159 154 157 160 162 164 162 159 162 167 161
54 75 13 352 356 262 264 180 248 266 247 206 191 193 170 164 161 156 152 155 155 160 168 179 176 180 177 170 173 172 169 165 166 168 173 171 168 170 172 160 159 162 165 165 158 159 171 177 172
199 147 165 203 231 273 314 229 259 291 22 86 114 162 152 160 166 163 164 164 165 169 175 177 180 181 179 174 174 167 164 162 164 164 160 171 177 178 169 162 164 165 164 166 158 161 189 188 191
163 188 177 153 193 241 274 274 313 17 49 62 77 77 129 159 168 164 165 167 172 174 179 176 174 169 174 175 165 158 151 152 156 153 153 165 172 172 164 165 168 172 171 169 163 172 198 192 200
153 160 91 118 167 244 262 247 240 279 278 55 85 97 111 128 136 144 167 173 177 177 174 163 159 163 166 161 170 163 157 163 161 149 153 172 174 171 166 170 172 176 178 179 174 186 200 194 210
9 63 106 135 164 168 228 263 230 198 199 136 126 128 137 137 142 145 153 167 165 163 159 155 156 155 159 166 159 150 153 149 146 151 165 171 174 171 170 174 173 180 186 185 186 201 198 200 220
149 159 144 156 240 174 174 264 325 93 79 101 107 108 113 132 141 140 140 141 146 145 152 155 157 157 164 162 151 151 149 145 146 154 164 165 173 178 177 176 177 188 193 191 193 207 207 205 215